Regional Weather Roundup
Issued by NWS

Home | Current Version | Previous Version | Text Only | Print | Product List | Glossary On
Versions: 1 2 3 4 5 6 7 8 9 10 11 12 13 14 15 16 17 18 19 20 21 22 23 24 25 26 27 28 29 30 31 32 33 34 35 36 37 38 39 40 41 42 43 44 45 46 47 48 49 50
000
ASUS43 KDTX 271910
RWRMI
MICHIGAN HOURLY REGIONAL WEATHER ROUNDUP
NATIONAL WEATHER SERVICE DETROIT/PONTIAC MI
300 PM EDT THU AUG 27 2015

NOTE: "FAIR" INDICATES FEW OR NO CLOUDS BELOW 12,000 FEET WITH NO
SIGNIFICANT WEATHER AND/OR OBSTRUCTION TO VISIBILITY.

MIZ047>049-052>055-059>063-066>070-074>076-081>083-272000-
SOUTHEAST LOWER MICHIGAN

CITY           SKY/WX    TMP DP  RH WIND       PRES   REMARKS
ADRIAN         CLOUDY    67  52  58 CALM      30.18F
ALMA           CLOUDY    69  55  59 W3        30.18F
ANN ARBOR      PTSUNNY   67  53  61 E6        30.18S
BAD AXE        CLOUDY    62  52  70 N5        30.18F
DETROIT CITY   CLOUDY    67  53  61 N7        30.18F
DETROIT        CLOUDY    67  52  58 N7        30.18F
FLINT          CLOUDY    66  52  60 E3        30.19F
GROSSE ILE     CLOUDY    70  55  60 NE7       30.17F
HILLSDALE      CLOUDY    67  55  65 CALM      30.19R
HOWELL         CLOUDY    64  52  64 CALM      30.19S

CITY           SKY/WX    TMP DP  RH WIND       PRES   REMARKS
JACKSON        CLOUDY    64  53  67 CALM      30.19S
LAMBERTVILLE   CLOUDY    70  54  56 NE5       30.18F
LANSING        MOSUNNY   67  53  61 NE5       30.19F
LAPEER         NOT AVBL
MASON          CLOUDY    61  52  70 CALM      30.19S
MONROE         CLOUDY    68  52  58 CALM      30.17S
MT. CLEMENS    CLOUDY    65  54  66 N5        30.16F
PONTIAC        CLOUDY    63  52  67 CALM      30.18F
PORT HOPE        N/A     63  52  67 NE6       30.17F
PORT HURON     CLOUDY    64  54  68 N3        30.18F
TRI CITIES     CLOUDY    67  52  58 SW5       30.18S
YPSILANTI      CLOUDY    72  54  53 NW6       30.19S
$$
MIZ043>046-050>051-056>058-064>065-071>073-077>080-272000-
SOUTHWEST LOWER MICHIGAN

CITY           SKY/WX    TMP DP  RH WIND       PRES   REMARKS
BATTLE CREEK   MOSUNNY   69  54  58 W3        30.19F
BENTON HARBOR  PTSUNNY   69  54  58 CALM      30.18S
BIG RAPIDS     CLOUDY    70  56  60 S3        30.16S
COLDWATER      CLOUDY    66  54  64 CALM      30.18S
HOLLAND        CLOUDY    68  57  68 W8        30.19R
GRAND RAPIDS   PTSUNNY   71  54  54 E5        30.18S
KALAMAZOO      PTSUNNY   70  53  54 CALM      30.19F
MARSHALL       CLOUDY    64  54  68 CALM      30.19S
MUSKEGON       MOSUNNY   70  56  61 SW12      30.19R
$$
MIZ016>042-272000-
NORTHERN LOWER MICHIGAN

CITY           SKY/WX    TMP DP  RH WIND       PRES   REMARKS
ALPENA         CLOUDY    64  52  64 W5        30.17F
BEAVER ISLAND  PTSUNNY   66  55  67 NW5       30.14F
BELLAIRE       CLOUDY    69  55  60 CALM      30.14F
CADILLAC       PTSUNNY   71  55  58 W6        30.16S
CHARLEVOIX     SUNNY     67  57  71 N8        30.17F
FRANKFORT      PTCLDY    68  60  75 SW6       30.16S
GAYLORD        PTSUNNY   68  53  58 VRB3      30.15F
GRAYLING       PTSUNNY   67  53  60 CALM      30.16F
HARBOR SPRINGS SUNNY     67  56  67 W6        30.14F
HOUGHTON LAKE  CLOUDY    67  54  63 SW6       30.17F
MANISTEE       SUNNY     70  54  56 W15       30.17S
OSCODA         CLOUDY    63  52  67 E6        30.17S
PELLSTON       CLOUDY    68  54  60 VRB3      30.14F
TRAVERSE CITY  PTSUNNY   73  55  53 VRB3      30.13F
$$
MIZ007>008-015-272000-
EASTERN UPPER MICHIGAN

CITY           SKY/WX    TMP DP  RH WIND       PRES   REMARKS
KINROSS        CLOUDY    63  54  72 N5        30.15F
MACKINAC ISLAN MOSUNNY   64  49  60 W6        30.15S
NEWBERRY       SUNNY     68  54  60 SE7       30.12F
S. S. MARIE    SUNNY     65  53  65 VRB3      30.13F
$$
MIZ004>006-011>014-085-272000-
CENTRAL UPPER MICHIGAN

CITY           SKY/WX    TMP DP  RH WIND       PRES   REMARKS
MANISTIQUE     SUNNY     65  55  71 S8        30.14S
ESCANABA       SUNNY     64  55  72 SE10      30.13F
MENOMINEE      SUNNY     66  55  68 SE8       30.13F
SAWYER-GWINN   SUNNY     72  48  43 S9        30.11F
$$
MIZ001>003-009>011-084-272000-
WESTERN UPPER MICHIGAN

CITY           SKY/WX    TMP DP  RH WIND       PRES   REMARKS
IRON MOUNTAIN  SUNNY     72  54  53 S7        30.10F
HOUGHTON       SUNNY     68  48  48 SE7       30.08F
COPPER HARBOR    N/A     63  51  65 VRB6      30.08F
IRONWOOD       SUNNY     73  54  49 SW10      30.04F
$$

ABBREVIATIONS USED IN REMARKS
   TC - TEMPERATURE IN CELSIUS
  WCI - WIND CHILL INDEX
   HX - HEAT INDEX
  VSB - VISIBILITY



USA.gov is the U.S. government's official web portal to all federal, state and local government web resources and services.